PKSNP WADL-WADS

Flight info

Callsign PKSNP
Flight time N/A
Altitude 7500
Route LHAJI DCT SASAK DCT APANG DCT TSARA
Aircraft C208/L-SDFGR/C

Departure

Time 2026-04-17 06:30
Airport Lombok International Airport (WADL)

Arrival

Time N/A
Airport Sultan Muhammad Kaharuddin III Airport (WADS)
Time Latitude Longitude Altitude Speed Heading
2026-04-17 06:17 -8.75891 116.27139 333 ft 0 kts 218°
2026-04-17 06:17 -8.75892 116.27139 333 ft 0 kts 219°
2026-04-17 06:26 -8.75894 116.27138 333 ft 0 kts 193°
2026-04-17 06:27 -8.75900 116.27143 333 ft 4 kts 108°
2026-04-17 06:27 -8.75836 116.27193 330 ft 18 kts 59°
2026-04-17 06:27 -8.75871 116.27291 331 ft 15 kts 70°
2026-04-17 06:27 -8.75784 116.27376 330 ft 19 kts 36°
2026-04-17 06:28 -8.75687 116.27456 332 ft 4 kts 41°
2026-04-17 06:29 -8.75684 116.27459 332 ft 3 kts 41°
2026-04-17 06:29 -8.75739 116.27543 332 ft 39 kts 131°
2026-04-17 06:29 -8.75997 116.27869 335 ft 79 kts 126°
2026-04-17 06:30 -8.76331 116.28332 566 ft 75 kts 135°
2026-04-17 06:30 -8.76675 116.28810 677 ft 91 kts 131°
2026-04-17 06:30 -8.77051 116.29357 853 ft 99 kts 134°
2026-04-17 06:30 -8.77466 116.29936 1022 ft 103 kts 131°
2026-04-17 06:31 -8.77678 116.30245 1116 ft 101 kts 131°
2026-04-17 06:31 -8.77824 116.30452 1177 ft 105 kts 132°
2026-04-17 06:31 -8.78177 116.31090 1334 ft 111 kts 102°
2026-04-17 06:31 -8.77843 116.31870 1500 ft 127 kts 69°
2026-04-17 06:32 -8.77515 116.32715 1664 ft 132 kts 75°
2026-04-17 06:32 -8.77234 116.33591 1836 ft 133 kts 85°
2026-04-17 06:32 -8.77080 116.34489 2000 ft 126 kts 86°
2026-04-17 06:32 -8.76922 116.35337 2188 ft 118 kts 85°
2026-04-17 06:33 -8.76793 116.36111 2451 ft 107 kts 85°
2026-04-17 06:33 -8.76703 116.36840 2714 ft 102 kts 89°
2026-04-17 06:33 -8.76610 116.37546 2970 ft 101 kts 86°
2026-04-17 06:33 -8.76519 116.38186 3222 ft 89 kts 87°
2026-04-17 06:34 -8.76433 116.38759 3447 ft 70 kts 90°
2026-04-17 06:34 -8.76278 116.39233 3455 ft 87 kts 72°
2026-04-17 06:34 -8.76079 116.39884 3588 ft 93 kts 83°
2026-04-17 06:34 -8.75982 116.40531 3745 ft 98 kts 89°
2026-04-17 06:35 -8.75742 116.41204 3875 ft 109 kts 55°
2026-04-17 06:35 -8.75290 116.41829 3998 ft 111 kts 57°
2026-04-17 06:35 -8.74822 116.42482 4094 ft 119 kts 57°
2026-04-17 06:35 -8.74348 116.43152 4220 ft 125 kts 57°
2026-04-17 06:36 -8.73845 116.43873 4346 ft 127 kts 57°
2026-04-17 06:36 -8.73327 116.44610 4465 ft 130 kts 56°
2026-04-17 06:36 -8.72804 116.45358 4592 ft 129 kts 56°
2026-04-17 06:36 -8.72286 116.46097 4717 ft 130 kts 56°
2026-04-17 06:37 -8.71754 116.46871 4839 ft 134 kts 56°
2026-04-17 06:37 -8.71217 116.47662 4965 ft 137 kts 56°
2026-04-17 06:37 -8.70672 116.48459 5082 ft 138 kts 56°
2026-04-17 06:37 -8.70133 116.49256 5199 ft 141 kts 57°
2026-04-17 06:38 -8.69577 116.50084 5321 ft 141 kts 56°
2026-04-17 06:38 -8.69030 116.50900 5440 ft 140 kts 56°
2026-04-17 06:38 -8.68480 116.51722 5566 ft 141 kts 56°
2026-04-17 06:38 -8.67936 116.52543 5690 ft 141 kts 57°
2026-04-17 06:39 -8.67394 116.53362 5812 ft 140 kts 56°
2026-04-17 06:39 -8.66936 116.54056 5910 ft 138 kts 56°
2026-04-17 06:39 -8.66452 116.54786 6030 ft 142 kts 56°
2026-04-17 06:39 -8.65922 116.55591 6146 ft 139 kts 56°
2026-04-17 06:40 -8.65392 116.56412 6263 ft 142 kts 56°
2026-04-17 06:40 -8.64849 116.57229 6390 ft 143 kts 56°
2026-04-17 06:40 -8.64276 116.58050 6507 ft 141 kts 56°
2026-04-17 06:40 -8.63716 116.58842 6621 ft 142 kts 56°
2026-04-17 06:41 -8.63134 116.59662 6739 ft 138 kts 56°
2026-04-17 06:41 -8.62577 116.60458 6858 ft 139 kts 56°
2026-04-17 06:41 -8.62075 116.61184 6963 ft 143 kts 57°
2026-04-17 06:41 -8.61501 116.62010 7084 ft 142 kts 57°
2026-04-17 06:42 -8.60942 116.62817 7185 ft 138 kts 56°
2026-04-17 06:42 -8.60389 116.63611 7303 ft 139 kts 57°
2026-04-17 06:42 -8.59838 116.64409 7427 ft 140 kts 56°
2026-04-17 06:42 -8.59270 116.65228 7477 ft 145 kts 56°
2026-04-17 06:43 -8.58670 116.66094 7479 ft 155 kts 56°
2026-04-17 06:43 -8.58045 116.66994 7476 ft 158 kts 58°
2026-04-17 06:43 -8.57504 116.67992 7488 ft 166 kts 64°
2026-04-17 06:43 -8.56980 116.69038 7490 ft 173 kts 64°
2026-04-17 06:44 -8.56429 116.70138 7492 ft 176 kts 65°
2026-04-17 06:44 -8.55872 116.71252 7493 ft 179 kts 64°
2026-04-17 06:44 -8.55302 116.72385 7490 ft 181 kts 64°
2026-04-17 06:44 -8.54732 116.73518 7497 ft 181 kts 64°
2026-04-17 06:45 -8.54164 116.74653 7497 ft 181 kts 64°
2026-04-17 06:45 -8.53598 116.75787 7487 ft 179 kts 64°
2026-04-17 06:45 -8.53038 116.76911 7486 ft 179 kts 64°
2026-04-17 06:45 -8.52484 116.78020 7487 ft 177 kts 65°
2026-04-17 06:46 -8.51932 116.79110 7482 ft 173 kts 64°
2026-04-17 06:46 -8.51390 116.80189 7484 ft 175 kts 65°
2026-04-17 06:46 -8.50846 116.81285 7488 ft 175 kts 64°
2026-04-17 06:46 -8.50304 116.82368 7486 ft 172 kts 65°
2026-04-17 06:47 -8.49759 116.83456 7486 ft 174 kts 64°
2026-04-17 06:47 -8.49210 116.84555 7486 ft 175 kts 65°
2026-04-17 06:47 -8.48658 116.85668 7499 ft 178 kts 65°
2026-04-17 06:47 -8.48115 116.86798 7499 ft 180 kts 66°
2026-04-17 06:48 -8.47583 116.87938 7477 ft 179 kts 66°
2026-04-17 06:48 -8.47051 116.89055 7478 ft 178 kts 66°
2026-04-17 06:48 -8.46522 116.90171 7486 ft 178 kts 66°
2026-04-17 06:48 -8.45980 116.91290 7486 ft 178 kts 66°
2026-04-17 06:49 -8.45448 116.92415 7486 ft 174 kts 68°
2026-04-17 06:49 -8.44931 116.93532 7494 ft 177 kts 66°
2026-04-17 06:49 -8.44395 116.94660 7494 ft 179 kts 66°
2026-04-17 06:49 -8.43860 116.95778 7489 ft 174 kts 66°
2026-04-17 06:50 -8.43333 116.96879 7485 ft 175 kts 66°
2026-04-17 06:50 -8.42810 116.97981 7485 ft 174 kts 66°
2026-04-17 06:50 -8.42285 116.99091 7484 ft 176 kts 66°
2026-04-17 06:50 -8.41752 117.00216 7483 ft 177 kts 66°
2026-04-17 06:51 -8.41218 117.01339 7490 ft 179 kts 66°
2026-04-17 06:51 -8.40687 117.02458 7491 ft 177 kts 66°
2026-04-17 06:51 -8.40148 117.03585 7491 ft 177 kts 66°
2026-04-17 06:51 -8.39639 117.04656 7491 ft 179 kts 66°
2026-04-17 06:52 -8.39089 117.05807 7491 ft 179 kts 66°
2026-04-17 06:52 -8.38549 117.06931 7491 ft 177 kts 66°
2026-04-17 06:52 -8.38027 117.08039 7490 ft 175 kts 66°
2026-04-17 06:52 -8.37500 117.09145 7493 ft 174 kts 65°
2026-04-17 06:53 -8.36969 117.10253 7481 ft 177 kts 66°
2026-04-17 06:53 -8.36434 117.11389 7477 ft 180 kts 66°
2026-04-17 06:53 -8.36010 117.12554 7484 ft 177 kts 86°
2026-04-17 06:53 -8.35981 117.13792 7480 ft 175 kts 93°
2026-04-17 06:54 -8.36008 117.14992 7476 ft 176 kts 94°
2026-04-17 06:54 -8.36037 117.16235 7476 ft 175 kts 94°
2026-04-17 06:54 -8.36061 117.17461 7478 ft 173 kts 93°
2026-04-17 06:54 -8.36078 117.18678 7478 ft 174 kts 94°
2026-04-17 06:55 -8.36104 117.19873 7426 ft 166 kts 94°
2026-04-17 06:55 -8.36186 117.21015 7239 ft 160 kts 105°
2026-04-17 06:55 -8.36448 117.22067 7054 ft 149 kts 107°
2026-04-17 06:55 -8.36710 117.23062 6861 ft 144 kts 108°
2026-04-17 06:56 -8.36963 117.24018 6674 ft 139 kts 108°
2026-04-17 06:56 -8.37202 117.24952 6438 ft 139 kts 108°
2026-04-17 06:56 -8.37447 117.25916 6143 ft 144 kts 108°
2026-04-17 06:56 -8.37779 117.26866 5799 ft 150 kts 114°
2026-04-17 06:57 -8.38175 117.27819 5355 ft 141 kts 116°
2026-04-17 06:57 -8.38567 117.28723 4955 ft 146 kts 115°
2026-04-17 06:57 -8.38980 117.29675 4540 ft 149 kts 115°
2026-04-17 06:57 -8.39279 117.30374 4232 ft 150 kts 115°
2026-04-17 06:58 -8.39668 117.31284 3833 ft 145 kts 116°
2026-04-17 06:58 -8.40056 117.32237 3389 ft 149 kts 114°
2026-04-17 06:58 -8.40450 117.33148 2943 ft 136 kts 115°
2026-04-17 06:58 -8.40842 117.33992 2498 ft 130 kts 115°
2026-04-17 06:59 -8.41220 117.34800 2066 ft 125 kts 115°
2026-04-17 06:59 -8.41678 117.35518 1660 ft 132 kts 143°
2026-04-17 06:59 -8.42495 117.35980 1298 ft 132 kts 142°
2026-04-17 06:59 -8.43179 117.36488 1240 ft 117 kts 140°
2026-04-17 07:00 -8.43756 117.36951 1214 ft 89 kts 136°
2026-04-17 07:00 -8.44197 117.37311 1005 ft 68 kts 133°
2026-04-17 07:00 -8.44509 117.37584 626 ft 65 kts 128°